Location: Treviso
(45.6669°N, 12.2430°E)
Time: 11:35:09
(UTC+01:00)

ISS - Pass Details

Date: 25 March 2023
Orbit: 414 x 423 km, 51.6° (Epoch: 20 March)

Event Time Altitude Azimuth Distance (km) Brightness Sun altitude
Rises 19:28:58 0° 287° (WNW) 2,359 2.3 -11.0°
Reaches altitude 10° 19:31:15 10° 300° (WNW) 1,494 0.4 -11.4°
Maximum altitude 19:34:12 28° 1° (N) 818 -2.2 -11.9°
Enters shadow 19:36:45 12° 59° (ENE) 1,351 -1.6 -12.4°
